| time (UTC) | temp C | wind direction | speed KPH | gust KPH | rain 1hr cm | rain 24hr cm | rain mn cm | humidity % | barometer mb |
| 20260507221003 | 12 | 234 | 0.0 | 9.7 | 0.00 | 0.15 | 0.15 | 83 | 1009.2 |
| 20260507220500 | 12 | 232 | 6.4 | 9.7 | 0.00 | 0.15 | 0.15 | 83 | 1009.0 |
| 20260507215956 | 13 | 252 | 3.2 | 6.4 | 0.00 | 0.15 | 0.15 | 83 | 1009.1 |
| 20260507215453 | 12 | 236 | 3.2 | 11.3 | 0.00 | 0.15 | 0.15 | 83 | 1009.1 |
| 20260507214951 | 12 | 141 | 4.8 | 11.3 | 0.00 | 0.15 | 0.15 | 83 | 1009.2 |
| 20260507214448 | 12 | 297 | 0.0 | 12.9 | 0.00 | 0.15 | 0.15 | 82 | 1009.1 |
| 20260507213943 | 12 | 233 | 12.9 | 16.1 | 0.00 | 0.15 | 0.15 | 81 | 1009.1 |
| 20260507213440 | 13 | 100 | 3.2 | 9.7 | 0.00 | 0.15 | 0.15 | 81 | 1009.2 |
| 20260507212937 | 13 | 45 | 3.2 | 8.0 | 0.00 | 0.15 | 0.15 | 81 | 1009.2 |
| 20260507212432 | 12 | 105 | 8.0 | 16.1 | 0.00 | 0.15 | 0.15 | 80 | 1009.0 |
| 20260507211930 | 13 | 94 | 8.0 | 11.3 | 0.00 | 0.15 | 0.15 | 79 | 1009.2 |
| 20260507211426 | 13 | 218 | 3.2 | 8.0 | 0.00 | 0.15 | 0.15 | 79 | 1009.4 |
| 20260507210923 | 13 | 112 | 8.0 | 14.5 | 0.00 | 0.15 | 0.15 | 79 | 1009.2 |
| 20260507210420 | 13 | 328 | 3.2 | 8.0 | 0.00 | 0.15 | 0.15 | 78 | 1009.1 |
| 20260507205917 | 13 | 285 | 1.6 | 9.7 | 0.00 | 0.15 | 0.15 | 78 | 1009.2 |
| 20260507205414 | 13 | 126 | 4.8 | 9.7 | 0.00 | 0.15 | 0.15 | 77 | 1008.9 |
| 20260507204910 | 13 | 160 | 4.8 | 8.0 | 0.00 | 0.15 | 0.15 | 77 | 1008.7 |
| 20260507204407 | 13 | 239 | 0.0 | 9.7 | 0.00 | 0.15 | 0.15 | 76 | 1009.2 |
| 20260507203904 | 13 | 120 | 4.8 | 4.8 | 0.00 | 0.15 | 0.15 | 76 | 1009.0 |
| 20260507203402 | 13 | 215 | 0.0 | 9.7 | 0.00 | 0.15 | 0.15 | 76 | 1009.2 |
| 20260507202858 | 13 | 243 | 9.7 | 9.7 | 0.00 | 0.15 | 0.15 | 75 | 1009.1 |
| 20260507202355 | 13 | 117 | 1.6 | 14.5 | 0.00 | 0.15 | 0.15 | 76 | 1008.9 |
| 20260507201850 | 13 | 239 | 12.9 | 12.9 | 0.00 | 0.15 | 0.15 | 75 | 1009.3 |
| 20260507201346 | 13 | 270 | 1.6 | 17.7 | 0.00 | 0.15 | 0.15 | 76 | 1009.0 |
| 20260507200843 | 12 | 14 | 1.6 | 20.9 | 0.00 | 0.15 | 0.15 | 77 | 1009.5 |
| 20260507200339 | 13 | 130 | 9.7 | 12.9 | 0.00 | 0.15 | 0.15 | 75 | 1009.5 |
| 20260507195835 | 13 | 100 | 6.4 | 12.9 | 0.00 | 0.15 | 0.15 | 74 | 1009.6 |
| 20260507195332 | 13 | 124 | 3.2 | 9.7 | 0.00 | 0.15 | 0.15 | 75 | 1009.5 |
| 20260507194830 | 13 | 113 | 11.3 | 11.3 | 0.00 | 0.15 | 0.15 | 75 | 1009.5 |
| 20260507194326 | 13 | 147 | 4.8 | 9.7 | 0.00 | 0.15 | 0.15 | 74 | 1009.4 |
| 20260507193822 | 13 | 313 | 4.8 | 6.4 | 0.00 | 0.15 | 0.15 | 73 | 1009.8 |
| 20260507193320 | 13 | 103 | 1.6 | 8.0 | 0.00 | 0.15 | 0.15 | 72 | 1009.8 |
| 20260507192815 | 13 | 90 | 0.0 | 3.2 | 0.00 | 0.15 | 0.15 | 71 | 1009.9 |
| 20260507192312 | 13 | 117 | 4.8 | 4.8 | 0.00 | 0.15 | 0.15 | 73 | 1009.7 |
| 20260507191808 | 14 | 86 | 8.0 | 8.0 | 0.00 | 0.15 | 0.15 | 71 | 1009.8 |
| 20260507191305 | 13 | 117 | 8.0 | 9.7 | 0.00 | 0.15 | 0.15 | 72 | 1010.0 |
| 20260507190802 | 13 | 265 | 3.2 | 8.0 | 0.00 | 0.15 | 0.15 | 73 | 1010.1 |
| 20260507190301 | 13 | 86 | 4.8 | 8.0 | 0.00 | 0.15 | 0.15 | 75 | 1009.8 |
| 20260507185759 | 13 | 79 | 4.8 | 8.0 | 0.00 | 0.15 | 0.15 | 77 | 1009.6 |
| 20260507185255 | 13 | 143 | 4.8 | 6.4 | 0.00 | 0.15 | 0.15 | 76 | 1009.9 |
| 20260507184752 | 13 | 112 | 3.2 | 9.7 | 0.00 | 0.15 | 0.15 | 77 | 1010.1 |
| 20260507184251 | 13 | 160 | 0.0 | 8.0 | 0.00 | 0.15 | 0.15 | 77 | 1010.3 |
| 20260507183747 | 13 | 289 | 1.6 | 8.0 | 0.00 | 0.15 | 0.15 | 77 | 1010.2 |
| 20260507183244 | 12 | 115 | 3.2 | 6.4 | 0.00 | 0.15 | 0.15 | 77 | 1010.1 |
| 20260507182741 | 12 | 195 | 0.0 | 11.3 | 0.00 | 0.15 | 0.15 | 78 | 1010.5 |
| 20260507182236 | 12 | 160 | 1.6 | 6.4 | 0.00 | 0.15 | 0.15 | 78 | 1010.2 |
| 20260507181733 | 12 | 113 | 6.4 | 8.0 | 0.00 | 0.15 | 0.15 | 79 | 1010.3 |
| 20260507181230 | 13 | 145 | 1.6 | 4.8 | 0.00 | 0.15 | 0.15 | 80 | 1010.1 |
| 20260507180726 | 12 | 148 | 1.6 | 8.0 | 0.00 | 0.15 | 0.15 | 81 | 1010.3 |
| 20260507180223 | 12 | 119 | 3.2 | 4.8 | 0.00 | 0.15 | 0.15 | 82 | 1010.2 |
| 20260507175719 | 12 | 148 | 1.6 | 6.4 | 0.00 | 0.15 | 0.15 | 82 | 1010.5 |
| 20260507175216 | 12 | 131 | 0.0 | 8.0 | 0.00 | 0.15 | 0.15 | 82 | 1010.6 |
| 20260507174714 | 12 | 28 | 3.2 | 6.4 | 0.00 | 0.15 | 0.15 | 83 | 1010.7 |
| 20260507174211 | 12 | 114 | 6.4 | 8.0 | 0.00 | 0.15 | 0.15 | 83 | 1010.6 |
| 20260507173708 | 12 | 128 | 3.2 | 8.0 | 0.05 | 0.15 | 0.15 | 83 | 1010.5 |
| 20260507173205 | 12 | 113 | 3.2 | 4.8 | 0.05 | 0.15 | 0.15 | 84 | 1010.8 |
| 20260507172701 | 12 | 180 | 0.0 | 4.8 | 0.00 | 0.15 | 0.15 | 84 | 1010.6 |
| 20260507172158 | 12 | 135 | 6.4 | 6.4 | 0.23 | 0.15 | 0.15 | 83 | 1010.6 |
| 20260507171653 | 12 | 124 | 3.2 | 4.8 | 0.23 | 0.15 | 0.15 | 83 | 1011.1 |
| 20260507171150 | 12 | 90 | 0.0 | 4.8 | 0.00 | 0.10 | 0.10 | 83 | 1010.6 |
| 20260507170647 | 12 | 111 | 4.8 | 4.8 | 0.00 | 0.10 | 0.10 | 83 | 1010.9 |
| 20260507170144 | 12 | 331 | 0.0 | 3.2 | 0.00 | 0.10 | 0.10 | 84 | 1010.8 |
| 20260507165640 | 12 | 114 | 3.2 | 4.8 | 0.00 | 0.10 | 0.10 | 85 | 1010.9 |
| 20260507165136 | 12 | 354 | 0.0 | 6.4 | 0.00 | 0.10 | 0.10 | 85 | 1010.9 |
| 20260507164632 | 12 | 135 | 0.0 | 3.2 | 0.00 | 0.10 | 0.10 | 86 | 1011.1 |
| 20260507164130 | 12 | 14 | 1.6 | 8.0 | 0.00 | 0.10 | 0.10 | 86 | 1011.4 |
| 20260507163627 | 12 | 0 | 3.2 | 4.8 | 0.00 | 0.10 | 0.10 | 86 | 1011.3 |
| 20260507163125 | 12 | 203 | 3.2 | 6.4 | 0.00 | 0.10 | 0.10 | 87 | 1011.2 |
| 20260507162620 | 12 | 131 | 4.8 | 4.8 | 0.00 | 0.10 | 0.10 | 87 | 1011.3 |
| 20260507162117 | 12 | 90 | 0.0 | 3.2 | 0.00 | 0.10 | 0.10 | 88 | 1011.1 |
| 20260507161613 | 12 | 108 | 4.8 | 11.3 | 0.00 | 0.10 | 0.10 | 88 | 1011.4 |
| 20260507161110 | 12 | 336 | 3.2 | 4.8 | 0.00 | 0.10 | 0.10 | 88 | 1011.5 |
| 20260507160606 | 12 | 106 | 0.0 | 4.8 | 0.00 | 0.10 | 0.10 | 89 | 1011.5 |
| 20260507155557 | 12 | 180 | 0.0 | 3.2 | 0.00 | 0.10 | 0.10 | 90 | 1011.7 |
| 20260507155055 | 12 | 270 | 1.6 | 6.4 | 0.00 | 0.10 | 0.10 | 90 | 1011.7 |
| 20260507154552 | 12 | 190 | 3.2 | 6.4 | 0.00 | 0.10 | 0.10 | 90 | 1011.5 |
| 20260507154049 | 12 | 119 | 3.2 | 6.4 | 0.00 | 0.10 | 0.10 | 90 | 1011.8 |
| 20260507153545 | 12 | 145 | 0.0 | 1.6 | 0.00 | 0.10 | 0.10 | 90 | 1011.8 |
| 20260507153042 | 12 | 124 | 3.2 | 6.4 | 0.00 | 0.10 | 0.10 | 90 | 1012.0 |
| 20260507152538 | 12 | 314 | 4.8 | 8.0 | 0.00 | 0.10 | 0.10 | 90 | 1011.8 |
| 20260507152034 | 12 | 151 | 0.0 | 3.2 | 0.00 | 0.10 | 0.10 | 90 | 1011.8 |
| 20260507151530 | 12 | 345 | 0.0 | 8.0 | 0.00 | 0.10 | 0.10 | 90 | 1011.6 |
| 20260507151028 | 12 | 349 | 6.4 | 6.4 | 0.00 | 0.10 | 0.10 | 90 | 1011.4 |
| 20260507150525 | 13 | 117 | 3.2 | 3.2 | 0.00 | 0.10 | 0.10 | 90 | 1011.4 |
| 20260507150021 | 13 | 141 | 3.2 | 3.2 | 0.00 | 0.10 | 0.10 | 90 | 1011.6 |
| 20260507145516 | 13 | 90 | 3.2 | 3.2 | 0.05 | 0.10 | 0.10 | 90 | 1011.4 |
| 20260507145015 | 13 | 0 | 0.0 | 1.6 | 0.05 | 0.10 | 0.10 | 89 | 1011.5 |
| 20260507144510 | 13 | 148 | 0.0 | 3.2 | 0.00 | 0.10 | 0.10 | 89 | 1011.3 |
| 20260507144008 | 12 | 346 | 0.0 | 3.2 | 0.05 | 0.10 | 0.10 | 88 | 1011.8 |
| 20260507143505 | 13 | 117 | 3.2 | 4.8 | 0.00 | 0.08 | 0.08 | 88 | 1011.8 |
| 20260507143002 | 12 | 119 | 3.2 | 4.8 | 0.05 | 0.08 | 0.08 | 87 | 1011.8 |
| 20260507142458 | 12 | 337 | 0.0 | 3.2 | 0.30 | 0.08 | 0.08 | 86 | 1011.8 |
| 20260507141955 | 12 | 101 | 3.2 | 4.8 | 0.30 | 0.08 | 0.08 | 86 | 1011.7 |
| 20260507141450 | 12 | 132 | 3.2 | 4.8 | 0.00 | 0.03 | 0.03 | 86 | 1011.9 |
| 20260507140948 | 12 | 109 | 0.0 | 8.0 | 0.00 | 0.03 | 0.03 | 85 | 1011.7 |
| 20260507140444 | 12 | 112 | 4.8 | 6.4 | 0.00 | 0.03 | 0.03 | 85 | 1011.9 |
| 20260507135942 | 13 | 151 | 3.2 | 8.0 | 0.00 | 0.03 | 0.03 | 85 | 1012.0 |
| 20260507135438 | 13 | 82 | 0.0 | 3.2 | 0.00 | 0.03 | 0.03 | 84 | 1011.9 |
| 20260507134936 | 13 | 324 | 4.8 | 4.8 | 0.00 | 0.03 | 0.03 | 84 | 1012.0 |
| 20260507134432 | 13 | 123 | 4.8 | 12.9 | 0.00 | 0.03 | 0.03 | 84 | 1012.0 |
| 20260507133928 | 13 | 203 | 3.2 | 4.8 | 0.00 | 0.03 | 0.03 | 84 | 1012.0 |
| 20260507133425 | 13 | 141 | 6.4 | 9.7 | 0.00 | 0.03 | 0.03 | 84 | 1012.0 |
| 20260507132923 | 13 | 90 | 0.0 | 8.0 | 0.00 | 0.03 | 0.03 | 84 | 1011.8 |
| 20260507132419 | 13 | 0 | 4.8 | 4.8 | 0.00 | 0.03 | 0.03 | 84 | 1012.1 |
| 20260507131916 | 13 | 90 | 0.0 | 8.0 | 0.00 | 0.03 | 0.03 | 84 | 1011.9 |
| 20260507131413 | 13 | 0 | 1.6 | 4.8 | 0.00 | 0.03 | 0.03 | 84 | 1012.0 |
| 20260507130910 | 13 | 342 | 0.0 | 6.4 | 0.00 | 0.03 | 0.03 | 84 | 1012.0 |
| 20260507130407 | 13 | 352 | 4.8 | 4.8 | 0.00 | 0.03 | 0.03 | 84 | 1011.9 |
| 20260507125906 | 13 | 23 | 1.6 | 3.2 | 0.00 | 0.03 | 0.03 | 84 | 1011.9 |
| 20260507125403 | 13 | 148 | 3.2 | 3.2 | 0.00 | 0.03 | 0.03 | 85 | 1011.7 |
| 20260507124900 | 13 | 90 | 1.6 | 6.4 | 0.00 | 0.03 | 0.03 | 85 | 1011.6 |
| 20260507124356 | 13 | 97 | 6.4 | 14.5 | 0.00 | 0.03 | 0.03 | 85 | 1011.7 |
| 20260507123855 | 13 | 54 | 0.0 | 6.4 | 0.00 | 0.03 | 0.03 | 85 | 1011.6 |
| 20260507123351 | 12 | 103 | 0.0 | 4.8 | 0.00 | 0.03 | 0.03 | 86 | 1011.6 |
| 20260507122848 | 13 | 180 | 0.0 | 9.7 | 0.00 | 0.03 | 0.03 | 86 | 1011.7 |
| 20260507122343 | 12 | 90 | 0.0 | 6.4 | 0.00 | 0.03 | 0.03 | 86 | 1011.5 |
| 20260507121840 | 12 | 21 | 3.2 | 3.2 | 0.00 | 0.03 | 0.03 | 86 | 1011.9 |
| 20260507121335 | 12 | 5 | 1.6 | 14.5 | 0.00 | 0.03 | 0.03 | 87 | 1011.6 |
| 20260507120832 | 12 | 233 | 3.2 | 6.4 | 0.00 | 0.03 | 0.03 | 88 | 1011.5 |
| 20260507120328 | 12 | 162 | 8.0 | 8.0 | 0.00 | 0.03 | 0.03 | 88 | 1011.4 |
| 20260507115825 | 12 | 124 | 0.0 | 3.2 | 0.00 | 0.03 | 0.03 | 89 | 1011.3 |
| 20260507115320 | 12 | 349 | 1.6 | 8.0 | 0.00 | 0.03 | 0.03 | 89 | 1011.5 |
| 20260507114816 | 12 | 0 | 1.6 | 4.8 | 0.00 | 0.03 | 0.03 | 90 | 1011.5 |
| 20260507114314 | 12 | 265 | 3.2 | 3.2 | 0.00 | 0.03 | 0.03 | 90 | 1011.6 |
| 20260507113811 | 12 | 15 | 0.0 | 1.6 | 0.00 | 0.03 | 0.03 | 90 | 1011.3 |
| 20260507113308 | 12 | 99 | 0.0 | 4.8 | 0.00 | 0.03 | 0.03 | 91 | 1011.2 |
| 20260507112806 | 12 | 111 | 4.8 | 4.8 | 0.00 | 0.03 | 0.03 | 91 | 1011.2 |
| 20260507112306 | 12 | 90 | 3.2 | 4.8 | 0.00 | 0.03 | 0.03 | 92 | 1011.3 |
| 20260507111800 | 12 | 112 | 3.2 | 4.8 | 0.00 | 0.03 | 0.03 | 92 | 1011.1 |
| 20260507111256 | 12 | 320 | 4.8 | 4.8 | 0.00 | 0.03 | 0.03 | 92 | 1011.0 |
| 20260507110752 | 12 | 117 | 3.2 | 3.2 | 0.00 | 0.03 | 0.03 | 93 | 1010.8 |
| 20260507110249 | 12 | 337 | 3.2 | 4.8 | 0.00 | 0.03 | 0.03 | 94 | 1010.7 |
| 20260507105746 | 12 | 0 | 0.0 | 9.7 | 0.00 | 0.03 | 0.03 | 94 | 1010.6 |
| 20260507105242 | 12 | 285 | 1.6 | 8.0 | 0.00 | 0.03 | 0.03 | 95 | 1010.8 |
| 20260507104740 | 12 | 135 | 4.8 | 8.0 | 0.00 | 0.03 | 0.03 | 95 | 1010.6 |
| 20260507104236 | 12 | 29 | 3.2 | 12.9 | 0.00 | 0.03 | 0.03 | 95 | 1010.7 |
| 20260507103732 | 12 | 180 | 0.0 | 3.2 | 0.00 | 0.03 | 0.03 | 95 | 1010.5 |
| 20260507103228 | 12 | 171 | 0.0 | 3.2 | 0.00 | 0.03 | 0.03 | 96 | 1010.5 |
| 20260507102725 | 12 | 15 | 0.0 | 3.2 | 0.00 | 0.03 | 0.03 | 96 | 1010.8 |
| 20260507102221 | 12 | 148 | 0.0 | 0.0 | 0.00 | 0.03 | 0.03 | 96 | 1010.6 |
| 20260507101718 | 12 | 154 | 0.0 | 3.2 | 0.00 | 0.03 | 0.03 | 96 | 1010.6 |
| 20260507101213 | 12 | 7 | 0.0 | 3.2 | 0.00 | 0.03 | 0.03 | 96 | 1010.9 |
| 20260507100710 | 12 | 165 | 0.0 | 0.0 | 0.00 | 0.03 | 0.03 | 96 | 1010.2 |
| 20260507100209 | 12 | 151 | 1.6 | 4.8 | 0.00 | 0.03 | 0.03 | 96 | 1010.2 |
| 20260507095707 | 12 | 90 | 0.0 | 0.0 | 0.00 | 0.03 | 0.03 | 96 | 1010.5 |
| 20260507095203 | 12 | 346 | 0.0 | 1.6 | 0.00 | 0.03 | 0.03 | 96 | 1010.8 |
| 20260507094659 | 12 | 81 | 0.0 | 1.6 | 0.00 | 0.03 | 0.03 | 97 | 1010.2 |
| 20260507094156 | 13 | 285 | 1.6 | 1.6 | 0.00 | 0.03 | 0.03 | 97 | 1010.0 |
| 20260507093653 | 13 | 270 | 0.0 | 3.2 | 0.00 | 0.03 | 0.03 | 97 | 1010.0 |
| 20260507093152 | 13 | 126 | 0.0 | 3.2 | 0.00 | 0.03 | 0.03 | 97 | 1010.1 |
| 20260507092649 | 13 | 277 | 1.6 | 1.6 | 0.00 | 0.03 | 0.03 | 97 | 1010.1 |
| 20260507092145 | 13 | 0 | 0.0 | 1.6 | 0.00 | 0.03 | 0.03 | 97 | 1010.3 |
| 20260507091642 | 13 | 262 | 0.0 | 3.2 | 0.00 | 0.03 | 0.03 | 97 | 1010.5 |
| 20260507091138 | 13 | 158 | 3.2 | 3.2 | 0.00 | 0.03 | 0.03 | 97 | 1010.5 |
| 20260507090633 | 13 | 106 | 0.0 | 3.2 | 0.00 | 0.03 | 0.03 | 97 | 1010.1 |
| 20260507090131 | 13 | 259 | 3.2 | 4.8 | 0.00 | 0.03 | 0.03 | 97 | 1010.2 |
| 20260507085628 | 13 | 215 | 0.0 | 3.2 | 0.00 | 0.03 | 0.03 | 98 | 1009.9 |
| 20260507085125 | 13 | 114 | 0.0 | 3.2 | 0.00 | 0.03 | 0.03 | 98 | 1010.1 |
| 20260507084621 | 13 | 0 | 0.0 | 14.5 | 0.00 | 0.03 | 0.03 | 98 | 1009.9 |
| 20260507084118 | 13 | 103 | 3.2 | 12.9 | 0.00 | 0.03 | 0.03 | 98 | 1010.1 |
| 20260507083615 | 13 | 221 | 3.2 | 12.9 | 0.00 | 0.03 | 0.03 | 98 | 1009.9 |
| 20260507083112 | 13 | 320 | 0.0 | 3.2 | 0.00 | 0.03 | 0.03 | 98 | 1010.0 |
| 20260507082608 | 13 | 234 | 0.0 | 1.6 | 0.00 | 0.03 | 0.03 | 98 | 1010.0 |
| 20260507082104 | 13 | 146 | 0.0 | 3.2 | 0.00 | 0.03 | 0.03 | 98 | 1009.6 |
| 20260507081601 | 14 | 220 | 0.0 | 3.2 | 0.00 | 0.03 | 0.03 | 98 | 1009.6 |
| 20260507081058 | 14 | 23 | 1.6 | 8.0 | 0.00 | 0.03 | 0.03 | 98 | 1009.6 |
| 20260507080553 | 14 | 263 | 1.6 | 4.8 | 0.00 | 0.03 | 0.03 | 98 | 1009.4 |
| 20260507080050 | 14 | 212 | 3.2 | 4.8 | 0.00 | 0.03 | 0.03 | 98 | 1009.5 |
| 20260507075545 | 14 | 306 | 1.6 | 4.8 | 0.00 | 0.03 | 0.03 | 98 | 1009.6 |
| 20260507075042 | 15 | 127 | 3.2 | 8.0 | 0.00 | 0.03 | 0.03 | 98 | 1009.5 |
| 20260507074539 | 15 | 6 | 1.6 | 4.8 | 0.00 | 0.03 | 0.03 | 98 | 1009.5 |
| 20260507074037 | 15 | 311 | 3.2 | 3.2 | 0.00 | 0.03 | 0.03 | 98 | 1009.6 |
| 20260507073533 | 15 | 355 | 3.2 | 4.8 | 0.00 | 0.03 | 0.03 | 98 | 1009.6 |
| 20260507073030 | 15 | 286 | 0.0 | 3.2 | 0.00 | 0.03 | 0.03 | 98 | 1009.5 |
| 20260507072527 | 15 | 90 | 1.6 | 6.4 | 0.00 | 0.03 | 0.03 | 98 | 1009.0 |
| 20260507072024 | 15 | 113 | 3.2 | 8.0 | 0.00 | 0.03 | 0.03 | 98 | 1009.0 |
| 20260507071522 | 16 | 145 | 6.4 | 6.4 | 0.00 | 0.03 | 0.03 | 98 | 1009.2 |
| 20260507071018 | 16 | 328 | 4.8 | 6.4 | 0.00 | 0.03 | 0.03 | 98 | 1008.9 |
| 20260507070515 | 16 | 60 | 0.0 | 1.6 | 0.00 | 0.03 | 0.03 | 98 | 1008.9 |
| 20260507070013 | 16 | 101 | 4.8 | 8.0 | 0.00 | 0.03 | 0.03 | 98 | 1008.8 |
| 20260507065508 | 17 | 300 | 3.2 | 3.2 | 0.00 | 0.03 | 0.03 | 98 | 1008.6 |
| 20260507065006 | 17 | 99 | 0.0 | 4.8 | 0.00 | 0.03 | 0.03 | 98 | 1008.5 |
| 20260507064504 | 17 | 324 | 0.0 | 4.8 | 0.00 | 0.03 | 0.03 | 98 | 1008.5 |
| 20260507064002 | 17 | 294 | 0.0 | 3.2 | 0.00 | 0.03 | 0.03 | 98 | 1008.5 |
| 20260507063458 | 17 | 262 | 0.0 | 6.4 | 0.00 | 0.03 | 0.03 | 98 | 1008.8 |
| 20260507062956 | 17 | 345 | 0.0 | 3.2 | 0.00 | 0.03 | 0.03 | 98 | 1008.8 |
| 20260507062452 | 17 | 270 | 1.6 | 3.2 | 0.00 | 0.03 | 0.03 | 98 | 1009.1 |
| 20260507061950 | 17 | 279 | 0.0 | 0.0 | 0.00 | 0.03 | 0.03 | 98 | 1009.0 |
| 20260507061448 | 17 | 114 | 0.0 | 3.2 | 0.00 | 0.03 | 0.03 | 97 | 1009.2 |
| 20260507060946 | 17 | 106 | 0.0 | 0.0 | 0.00 | 0.03 | 0.03 | 97 | 1008.9 |
| 20260507060442 | 17 | 194 | 0.0 | 3.2 | 0.00 | 0.03 | 0.03 | 97 | 1009.1 |
| 20260507055939 | 17 | 120 | 0.0 | 1.6 | 0.00 | 0.03 | 0.03 | 97 | 1008.9 |
| 20260507055434 | 17 | 105 | 0.0 | 3.2 | 0.00 | 0.03 | 0.03 | 97 | 1008.6 |
| 20260507054931 | 17 | 90 | 0.0 | 3.2 | 0.00 | 0.03 | 0.03 | 97 | 1008.8 |
| 20260507054427 | 17 | 105 | 0.0 | 3.2 | 0.00 | 0.03 | 0.03 | 97 | 1008.8 |
| 20260507053925 | 17 | 261 | 0.0 | 1.6 | 0.00 | 0.03 | 0.03 | 97 | 1008.7 |
| 20260507053422 | 17 | 160 | 0.0 | 3.2 | 0.00 | 0.03 | 0.03 | 97 | 1008.4 |
| 20260507052921 | 17 | 249 | 0.0 | 1.6 | 0.00 | 0.03 | 0.03 | 97 | 1008.4 |
| 20260507052418 | 17 | 246 | 0.0 | 0.0 | 0.00 | 0.03 | 0.03 | 97 | 1007.8 |
| 20260507051915 | 17 | 246 | 0.0 | 1.6 | 0.00 | 0.03 | 0.03 | 96 | 1007.7 |
| 20260507051413 | 17 | 249 | 0.0 | 1.6 | 0.00 | 0.03 | 0.03 | 96 | 1007.6 |
| 20260507050909 | 17 | 261 | 0.0 | 0.0 | 0.00 | 0.03 | 0.03 | 96 | 1007.9 |
| 20260507050406 | 17 | 106 | 0.0 | 3.2 | 0.00 | 0.03 | 0.03 | 96 | 1007.9 |
| 20260507045903 | 18 | 251 | 0.0 | 3.2 | 0.00 | 0.03 | 0.03 | 95 | 1008.0 |
| 20260507045359 | 18 | 106 | 0.0 | 3.2 | 0.05 | 0.03 | 0.03 | 95 | 1007.8 |
| 20260507044856 | 18 | 109 | 1.6 | 3.2 | 0.05 | 0.03 | 0.03 | 95 | 1008.1 |
| 20260507044353 | 18 | 225 | 0.0 | 0.0 | 0.00 | 0.00 | 0.00 | 95 | 1008.3 |
| 20260507043849 | 18 | 225 | 0.0 | 3.2 | 0.00 | 0.00 | 0.00 | 95 | 1008.4 |
| 20260507043346 | 18 | 254 | 0.0 | 0.0 | 0.00 | 0.00 | 0.00 | 95 | 1008.7 |
| 20260507042842 | 18 | 246 | 0.0 | 3.2 | 0.00 | 0.00 | 0.00 | 94 | 1008.8 |
| 20260507042338 | 18 | 160 | 0.0 | 3.2 | 0.05 | 0.00 | 0.00 | 94 | 1008.8 |
| 20260507041835 | 18 | 240 | 1.6 | 3.2 | 0.05 | 0.00 | 0.00 | 94 | 1008.8 |
| 20260507041331 | 18 | 276 | 1.6 | 3.2 | 0.00 | 0.00 | 0.00 | 93 | 1008.7 |
| 20260507040829 | 18 | 255 | 0.0 | 3.2 | 0.05 | 0.00 | 0.00 | 93 | 1008.4 |
| 20260507040324 | 18 | 277 | 1.6 | 4.8 | 0.05 | 0.00 | 0.00 | 92 | 1008.5 |
| 20260507035821 | 18 | 286 | 0.0 | 1.6 | 0.00 | 0.10 | 0.10 | 92 | 1008.3 |
| 20260507035316 | 18 | 225 | 0.0 | 4.8 | 0.05 | 0.10 | 0.10 | 92 | 1008.3 |
| 20260507034814 | 18 | 243 | 3.2 | 8.0 | 0.05 | 0.10 | 0.10 | 91 | 1008.3 |
| 20260507034311 | 18 | 294 | 0.0 | 4.8 | 0.00 | 0.10 | 0.10 | 91 | 1008.8 |
| 20260507033809 | 18 | 248 | 8.0 | 11.3 | 0.00 | 0.10 | 0.10 | 91 | 1008.9 |
| 20260507033306 | 18 | 204 | 3.2 | 6.4 | 0.00 | 0.10 | 0.10 | 90 | 1008.9 |
| 20260507032803 | 18 | 126 | 1.6 | 6.4 | 0.00 | 0.10 | 0.10 | 90 | 1009.1 |
| 20260507032259 | 18 | 228 | 3.2 | 4.8 | 0.00 | 0.10 | 0.10 | 90 | 1009.0 |
| 20260507031756 | 18 | 300 | 1.6 | 6.4 | 0.00 | 0.10 | 0.10 | 91 | 1008.5 |
| 20260507031253 | 18 | 127 | 3.2 | 6.4 | 0.00 | 0.10 | 0.10 | 91 | 1008.4 |
| 20260507030749 | 18 | 229 | 3.2 | 4.8 | 0.00 | 0.10 | 0.10 | 90 | 1008.6 |
| 20260507030247 | 18 | 255 | 3.2 | 4.8 | 0.00 | 0.10 | 0.10 | 91 | 1008.6 |
| 20260507025744 | 18 | 334 | 3.2 | 3.2 | 0.00 | 0.10 | 0.10 | 91 | 1008.5 |
| 20260507025241 | 18 | 244 | 4.8 | 4.8 | 0.00 | 0.10 | 0.10 | 91 | 1008.7 |
| 20260507024739 | 18 | 180 | 3.2 | 4.8 | 0.00 | 0.10 | 0.10 | 91 | 1008.6 |
| 20260507024236 | 18 | 140 | 8.0 | 8.0 | 0.00 | 0.10 | 0.10 | 91 | 1008.5 |
| 20260507023731 | 18 | 117 | 4.8 | 4.8 | 0.00 | 0.10 | 0.10 | 91 | 1009.0 |
| 20260507023229 | 18 | 180 | 0.0 | 3.2 | 0.00 | 0.10 | 0.10 | 91 | 1009.0 |
| 20260507022726 | 18 | 278 | 0.0 | 3.2 | 0.00 | 0.10 | 0.10 | 91 | 1008.8 |
| 20260507022222 | 18 | 331 | 1.6 | 3.2 | 0.00 | 0.10 | 0.10 | 91 | 1008.5 |
| 20260507021718 | 18 | 255 | 3.2 | 8.0 | 0.00 | 0.10 | 0.10 | 91 | 1008.4 |
| 20260507021214 | 18 | 323 | 0.0 | 3.2 | 0.00 | 0.10 | 0.10 | 90 | 1008.0 |
| 20260507020713 | 18 | 255 | 1.6 | 3.2 | 0.00 | 0.10 | 0.10 | 90 | 1008.2 |
| 20260507020208 | 18 | 233 | 3.2 | 4.8 | 0.00 | 0.10 | 0.10 | 90 | 1007.8 |
| 20260507015706 | 18 | 243 | 0.0 | 4.8 | 0.00 | 0.10 | 0.10 | 90 | 1007.7 |
| 20260507015203 | 18 | 166 | 0.0 | 8.0 | 0.00 | 0.10 | 0.10 | 90 | 1007.8 |
| 20260507014700 | 18 | 294 | 1.6 | 4.8 | 0.00 | 0.10 | 0.10 | 90 | 1008.1 |
| 20260507014156 | 18 | 213 | 3.2 | 4.8 | 0.00 | 0.10 | 0.10 | 90 | 1008.5 |
| 20260507013653 | 18 | 270 | 0.0 | 6.4 | 0.00 | 0.10 | 0.10 | 89 | 1008.3 |
| 20260507013150 | 18 | 220 | 4.8 | 4.8 | 0.00 | 0.10 | 0.10 | 89 | 1008.6 |
| 20260507012648 | 18 | 262 | 1.6 | 4.8 | 0.00 | 0.10 | 0.10 | 89 | 1008.4 |
| 20260507012143 | 18 | 246 | 0.0 | 1.6 | 0.00 | 0.10 | 0.10 | 88 | 1008.3 |
| 20260507011641 | 18 | 345 | 1.6 | 3.2 | 0.00 | 0.10 | 0.10 | 88 | 1008.1 |
| 20260507011137 | 19 | 164 | 4.8 | 4.8 | 0.00 | 0.10 | 0.10 | 88 | 1008.4 |
| 20260507010632 | 19 | 188 | 0.0 | 0.0 | 0.00 | 0.10 | 0.10 | 88 | 1008.6 |
| 20260507010128 | 19 | 243 | 1.6 | 4.8 | 0.00 | 0.10 | 0.10 | 87 | 1008.7 |
| 20260507005626 | 19 | 120 | 0.0 | 4.8 | 0.00 | 0.10 | 0.10 | 87 | 1008.7 |
| 20260507005121 | 19 | 264 | 0.0 | 1.6 | 0.00 | 0.10 | 0.10 | 87 | 1008.6 |
| 20260507004619 | 19 | 270 | 0.0 | 8.0 | 0.00 | 0.10 | 0.10 | 87 | 1008.6 |
| 20260507004116 | 19 | 270 | 4.8 | 8.0 | 0.00 | 0.10 | 0.10 | 87 | 1008.3 |
| 20260507003612 | 19 | 0 | 0.0 | 4.8 | 0.00 | 0.10 | 0.10 | 86 | 1008.4 |
| 20260507003107 | 19 | 74 | 0.0 | 4.8 | 0.00 | 0.10 | 0.10 | 86 | 1008.3 |
| 20260507002604 | 19 | 168 | 1.6 | 6.4 | 0.00 | 0.10 | 0.10 | 86 | 1008.3 |
| 20260507002059 | 20 | 341 | 3.2 | 3.2 | 0.00 | 0.10 | 0.10 | 85 | 1008.3 |
| 20260507001557 | 20 | 165 | 3.2 | 3.2 | 0.00 | 0.10 | 0.10 | 85 | 1008.5 |
| 20260507001054 | 20 | 229 | 0.0 | 6.4 | 0.00 | 0.10 | 0.10 | 85 | 1008.5 |
| 20260507000550 | 20 | 270 | 0.0 | 3.2 | 0.00 | 0.10 | 0.10 | 84 | 1008.2 |
| 20260507000046 | 20 | 66 | 1.6 | 8.0 | 0.00 | 0.10 | 0.10 | 84 | 1008.2 |
| 20260506235543 | 20 | 270 | 0.0 | 3.2 | 0.00 | 0.10 | 0.10 | 83 | 1008.2 |
| 20260506235038 | 20 | 250 | 0.0 | 4.8 | 0.00 | 0.10 | 0.10 | 83 | 1008.1 |
| 20260506234536 | 20 | 214 | 3.2 | 6.4 | 0.00 | 0.10 | 0.10 | 83 | 1007.9 |
| 20260506234033 | 20 | 251 | 4.8 | 9.7 | 0.00 | 0.10 | 0.10 | 83 | 1007.9 |
| 20260506233530 | 20 | 248 | 3.2 | 8.0 | 0.00 | 0.10 | 0.10 | 82 | 1007.9 |
| 20260506233027 | 20 | 260 | 8.0 | 12.9 | 0.00 | 0.10 | 0.10 | 82 | 1008.4 |
| 20260506232523 | 20 | 145 | 4.8 | 6.4 | 0.00 | 0.10 | 0.10 | 82 | 1008.4 |
| 20260506232019 | 20 | 175 | 0.0 | 6.4 | 0.00 | 0.10 | 0.10 | 81 | 1008.5 |
| 20260506231516 | 21 | 216 | 0.0 | 11.3 | 0.00 | 0.10 | 0.10 | 81 | 1008.7 |
| 20260506231014 | 21 | 334 | 1.6 | 12.9 | 0.00 | 0.10 | 0.10 | 81 | 1008.5 |
| 20260506230510 | 21 | 249 | 6.4 | 14.5 | 0.00 | 0.10 | 0.10 | 81 | 1008.2 |
| 20260506230008 | 21 | 277 | 1.6 | 8.0 | 0.00 | 0.10 | 0.10 | 81 | 1008.1 |
| 20260506225504 | 21 | 135 | 0.0 | 12.9 | 0.00 | 0.10 | 0.10 | 80 | 1007.8 |
| 20260506225001 | 21 | 352 | 0.0 | 6.4 | 0.00 | 0.10 | 0.10 | 80 | 1008.0 |
| 20260506224458 | 21 | 106 | 6.4 | 19.3 | 0.00 | 0.10 | 0.10 | 80 | 1007.9 |
| 20260506223954 | 21 | 237 | 6.4 | 9.7 | 0.00 | 0.10 | 0.10 | 80 | 1007.6 |
| 20260506223450 | 21 | 239 | 0.0 | 8.0 | 0.00 | 0.10 | 0.10 | 80 | 1007.6 |
| 20260506222947 | 21 | 190 | 3.2 | 16.1 | 0.00 | 0.10 | 0.10 | 80 | 1008.0 |
| 20260506222443 | 21 | 121 | 9.7 | 12.9 | 0.00 | 0.10 | 0.10 | 80 | 1007.9 |
| 20260506221935 | 21 | 70 | 3.2 | 16.1 | 0.00 | 0.10 | 0.10 | 80 | 1007.7 |
| 20260506221432 | 21 | 157 | 0.0 | 16.1 | 0.00 | 0.10 | 0.10 | 80 | 1007.5 |